AD8AK Weather Reports


Display with metric or nautical units.
time (UTC)temp
F
wind
direction
speed
MPH
gust
MPH
rain 1hr
in
rain 24hr
in
rain mn
in
humidity
%
barometer
mb
20260507090633 42 234 0.0 0.0 0.00 0.00 0.00 80 1013.0
20260507090131 41 232 0.0 0.0 0.00 0.00 0.00 81 1013.0
20260507085628 41 244 0.0 1.0 0.00 0.00 0.00 82 1012.8
20260507085124 41 250 0.0 0.0 0.00 0.00 0.00 82 1012.9
20260507084621 41 258 0.0 0.0 0.00 0.00 0.00 83 1013.0
20260507084118 41 255 0.0 0.0 0.00 0.00 0.00 83 1012.9
20260507083615 41 264 0.0 0.0 0.00 0.00 0.00 84 1012.9
20260507083112 41 273 0.0 0.0 0.00 0.00 0.00 84 1012.8
20260507082607 41 294 0.0 0.0 0.00 0.00 0.00 85 1012.9
20260507082104 41 292 0.0 0.0 0.00 0.00 0.00 85 1012.9
20260507081600 41 301 0.0 0.0 0.00 0.00 0.00 86 1013.0
20260507081057 41 304 0.0 0.0 0.00 0.00 0.00 86 1012.9
20260507080553 41 295 0.0 0.0 0.00 0.00 0.00 86 1012.9
20260507080050 41 286 0.0 0.0 0.00 0.00 0.00 86 1012.6
20260507075545 42 286 0.0 0.0 0.00 0.00 0.00 86 1012.9
20260507075042 42 283 0.0 0.0 0.00 0.00 0.00 86 1012.9
20260507074538 42 283 0.0 0.0 0.00 0.00 0.00 87 1012.9
20260507074037 41 281 0.0 0.0 0.00 0.00 0.00 88 1012.9
20260507073533 41 280 0.0 0.0 0.00 0.00 0.00 89 1013.0
20260507073029 41 286 0.0 0.0 0.00 0.00 0.00 89 1013.0
20260507072527 40 298 0.0 0.0 0.00 0.00 0.00 89 1013.0
20260507072024 40 299 0.0 0.0 0.00 0.00 0.00 89 1013.0
20260507071521 40 299 0.0 0.0 0.00 0.00 0.00 89 1013.0
20260507071018 40 299 0.0 0.0 0.00 0.00 0.00 89 1012.9
20260507070515 40 299 0.0 0.0 0.00 0.00 0.00 89 1013.0
20260507070013 41 299 0.0 0.0 0.00 0.00 0.00 89 1013.1
20260507065508 41 299 0.0 0.0 0.00 0.00 0.00 88 1013.2
20260507065006 41 289 0.0 0.0 0.00 0.00 0.00 88 1013.0
20260507064504 41 284 0.0 0.0 0.00 0.00 0.00 88 1013.1
20260507064001 41 295 0.0 0.0 0.00 0.00 0.00 89 1013.1
20260507063458 41 299 0.0 0.0 0.00 0.00 0.00 88 1013.0
20260507062955 41 299 0.0 0.0 0.00 0.00 0.00 88 1013.1
20260507062452 41 299 0.0 0.0 0.00 0.00 0.00 88 1013.2
20260507061950 41 299 0.0 0.0 0.00 0.00 0.00 87 1013.5
20260507061447 41 299 0.0 0.0 0.00 0.00 0.00 87 1013.5
20260507060946 41 299 0.0 0.0 0.00 0.00 0.00 87 1013.3
20260507060442 42 299 0.0 0.0 0.00 0.00 0.00 86 1013.2
20260507055939 42 299 0.0 0.0 0.00 0.00 0.00 86 1013.2
20260507055434 42 299 0.0 0.0 0.00 0.00 0.00 86 1013.3
20260507054931 42 299 0.0 0.0 0.00 0.00 0.00 86 1013.1
20260507054427 42 299 0.0 0.0 0.00 0.00 0.00 86 1013.3
20260507053925 42 299 0.0 0.0 0.00 0.00 0.00 86 1013.5
20260507053422 42 299 0.0 0.0 0.00 0.00 0.00 85 1013.5
20260507052921 42 296 0.0 0.0 0.00 0.00 0.00 85 1013.3
20260507052418 42 296 0.0 0.0 0.00 0.00 0.00 85 1013.5
20260507051914 42 296 0.0 0.0 0.00 0.00 0.00 85 1013.3
20260507051412 41 293 0.0 0.0 0.00 0.00 0.00 85 1013.7
20260507050910 42 293 0.0 0.0 0.00 0.00 0.00 84 1013.6
20260507050406 42 291 0.0 0.0 0.00 0.00 0.00 84 1013.7
20260507045903 42 291 0.0 0.0 0.00 0.00 0.00 84 1013.7
20260507045359 42 290 0.0 0.0 0.00 0.00 0.00 83 1013.6
20260507044856 42 290 0.0 0.0 0.00 0.00 0.00 82 1013.7
20260507044353 42 290 0.0 0.0 0.00 0.00 0.00 82 1013.6
20260507043848 42 288 0.0 0.0 0.00 0.00 0.00 81 1013.6
20260507043345 42 288 0.0 0.0 0.00 0.00 0.00 81 1013.6
20260507042842 42 288 0.0 0.0 0.00 0.00 0.00 81 1013.5
20260507042337 42 288 0.0 0.0 0.00 0.00 0.00 80 1013.7
20260507041834 43 288 0.0 0.0 0.00 0.00 0.00 78 1013.5
20260507041331 43 288 0.0 0.0 0.00 0.00 0.00 77 1013.7
20260507040828 44 288 0.0 0.0 0.00 0.00 0.00 76 1013.7
20260507040324 44 288 0.0 0.0 0.00 0.00 0.00 75 1013.6
20260507035820 44 288 0.0 0.0 0.00 0.20 0.20 74 1013.7
20260507035316 45 288 0.0 0.0 0.00 0.20 0.20 74 1013.7
20260507034814 45 288 0.0 0.0 0.00 0.20 0.20 72 1013.8
20260507034310 46 286 0.0 0.0 0.00 0.20 0.20 71 1013.6
20260507033809 46 286 0.0 0.0 0.00 0.20 0.20 70 1013.7
20260507033306 46 286 0.0 0.0 0.00 0.20 0.20 69 1013.9
20260507032803 47 286 0.0 0.0 0.00 0.20 0.20 68 1014.0
20260507032259 47 286 0.0 0.0 0.00 0.20 0.20 67 1013.8
20260507031755 48 285 0.0 0.0 0.00 0.20 0.20 67 1014.0
20260507031252 48 262 0.0 0.0 0.00 0.20 0.20 67 1014.0
20260507030749 48 325 0.0 0.0 0.00 0.20 0.20 68 1014.0
20260507030247 48 325 0.0 0.0 0.00 0.20 0.20 66 1014.0
20260507025744 48 264 0.0 0.0 0.00 0.20 0.20 66 1014.2
20260507025241 48 263 0.0 0.0 0.00 0.20 0.20 65 1014.0
20260507024739 49 263 0.0 0.0 0.00 0.20 0.20 65 1014.0
20260507024236 49 263 0.0 0.0 0.00 0.20 0.20 64 1014.0
20260507023731 49 256 0.0 0.0 0.00 0.20 0.20 64 1014.0
20260507023229 50 257 0.0 0.0 0.00 0.20 0.20 63 1014.0
20260507022726 50 235 0.0 0.0 0.00 0.20 0.20 62 1014.1
20260507022221 50 234 0.0 1.0 0.00 0.20 0.20 62 1014.0
20260507021718 50 232 0.0 0.0 0.00 0.20 0.20 62 1013.8
20260507021213 50 231 0.0 0.0 0.00 0.20 0.20 62 1013.9
20260507020712 50 260 0.0 1.0 0.00 0.20 0.20 60 1013.9
20260507020208 50 224 1.0 2.0 0.00 0.20 0.20 59 1013.9
20260507015706 50 247 0.0 0.0 0.00 0.20 0.20 60 1014.0
20260507015203 50 280 0.0 0.0 0.00 0.20 0.20 62 1014.0
20260507014659 50 247 0.0 0.0 0.00 0.20 0.20 61 1013.7
20260507014155 51 232 0.0 0.0 0.00 0.20 0.20 62 1013.6
20260507013653 51 242 0.0 0.0 0.00 0.20 0.20 60 1013.6
20260507013150 51 234 0.0 0.0 0.00 0.20 0.20 60 1013.7
20260507012648 51 241 0.0 0.0 0.00 0.20 0.20 59 1013.1
20260507012142 51 226 0.0 1.0 0.00 0.20 0.20 58 1013.2
20260507011641 51 228 1.0 1.0 0.00 0.20 0.20 57 1013.2
20260507011137 51 224 1.0 1.0 0.00 0.20 0.20 57 1013.2
20260507010631 51 257 0.0 1.0 0.00 0.20 0.20 57 1013.3
20260507010128 51 288 0.0 1.0 0.00 0.20 0.20 57 1013.2
20260507005625 51 229 1.0 1.0 0.00 0.20 0.20 57 1013.2
20260507005121 51 237 1.0 1.0 0.00 0.20 0.20 56 1013.2
20260507004618 51 279 0.0 0.0 0.00 0.20 0.20 56 1013.1
20260507004116 51 265 0.0 1.0 0.00 0.20 0.20 55 1013.0
20260507003612 51 255 1.0 1.0 0.00 0.20 0.20 54 1013.0
20260507003107 52 287 1.0 1.0 0.00 0.20 0.20 53 1013.1
20260507002604 52 257 0.0 0.0 0.00 0.20 0.20 53 1013.1
20260507002059 52 270 0.0 0.0 0.00 0.20 0.20 52 1013.2
20260507001556 52 256 1.0 1.0 0.00 0.20 0.20 51 1013.1
20260507001054 52 286 0.0 1.0 0.00 0.20 0.20 52 1013.2
20260507000550 52 306 0.0 1.0 0.00 0.20 0.20 53 1013.0
20260507000045 52 285 0.0 0.0 0.00 0.20 0.20 52 1013.0
20260506235543 52 265 0.0 0.0 0.00 0.20 0.20 52 1013.0
20260506235038 53 275 2.0 2.0 0.00 0.20 0.20 50 1013.2
20260506234536 53 246 0.0 0.0 0.00 0.20 0.20 50 1012.9
20260506234033 53 266 0.0 2.0 0.00 0.20 0.20 49 1013.1
20260506233530 53 294 2.0 2.0 0.00 0.20 0.20 48 1012.9
20260506233027 53 281 1.0 2.0 0.00 0.20 0.20 48 1013.1
20260506232523 53 261 1.0 3.0 0.00 0.20 0.20 47 1013.1
20260506232019 53 251 1.0 1.0 0.00 0.20 0.20 47 1013.2
20260506231516 53 260 1.0 2.0 0.00 0.20 0.20 47 1013.5
20260506231014 53 333 1.0 2.0 0.00 0.20 0.20 47 1013.2
20260506230510 53 286 0.0 1.0 0.00 0.20 0.20 49 1013.3
20260506230008 53 285 1.0 3.0 0.00 0.20 0.20 46 1013.3
20260506225504 53 338 2.0 3.0 0.00 0.20 0.20 47 1013.3
20260506225000 53 311 1.0 2.0 0.00 0.20 0.20 47 1013.5
20260506224457 53 313 0.0 1.0 0.00 0.20 0.20 47 1013.5
20260506223954 53 283 1.0 3.0 0.00 0.20 0.20 46 1013.1
20260506223450 53 310 0.0 0.0 0.00 0.20 0.20 50 1013.2
20260506222947 53 350 1.0 3.0 0.00 0.20 0.20 46 1013.3
20260506222444 53 322 1.0 2.0 0.00 0.20 0.20 46 1013.2
20260506221940 53 310 0.0 1.0 0.00 0.20 0.20 46 1013.5
20260506221437 53 342 1.0 2.0 0.00 0.20 0.20 46 1013.1
20260506220936 53 351 1.0 2.0 0.00 0.20 0.20 49 1013.2
20260506220431 53 335 0.0 1.0 0.00 0.20 0.20 48 1013.2
20260506215927 53 1 0.0 2.0 0.00 0.20 0.20 46 1013.3
20260506215424 53 338 2.0 7.0 0.00 0.20 0.20 45 1013.0
20260506214920 53 287 0.0 1.0 0.00 0.20 0.20 49 1013.2
20260506214417 53 314 0.0 3.0 0.00 0.20 0.20 47 1013.1
20260506213914 53 316 3.0 4.0 0.00 0.20 0.20 46 1013.0
20260506213412 53 337 3.0 4.0 0.00 0.20 0.20 46 1013.2
20260506212909 53 332 2.0 4.0 0.00 0.20 0.20 45 1012.8
20260506212405 53 323 3.0 4.0 0.00 0.20 0.20 44 1012.8
20260506211859 53 316 0.0 3.0 0.00 0.20 0.20 47 1012.8
20260506211356 53 337 1.0 2.0 0.00 0.20 0.20 46 1012.7
20260506210853 53 293 2.0 4.0 0.00 0.20 0.20 44 1012.9
20260506210350 53 349 2.0 3.0 0.00 0.20 0.20 46 1012.8
20260506205847 53 267 1.0 4.0 0.00 0.20 0.20 45 1013.0
20260506205343 53 343 2.0 4.0 0.00 0.20 0.20 45 1012.6
20260506204840 54 336 3.0 6.0 0.00 0.20 0.20 45 1012.9
20260506204337 54 345 3.0 8.0 0.00 0.20 0.20 45 1012.7
20260506203835 54 330 2.0 6.0 0.00 0.20 0.20 45 1012.9
20260506203332 54 334 2.0 3.0 0.00 0.20 0.20 47 1012.6
20260506202829 54 346 0.0 3.0 0.00 0.20 0.20 47 1012.6
20260506202326 54 351 3.0 4.0 0.00 0.20 0.20 46 1012.7
20260506201822 54 303 1.0 4.0 0.00 0.20 0.20 44 1012.9
20260506201320 54 315 2.0 4.0 0.00 0.20 0.20 45 1012.6
20260506200816 54 357 2.0 6.0 0.00 0.20 0.20 45 1012.6
20260506200312 55 329 1.0 4.0 0.00 0.20 0.20 45 1012.9
20260506195809 55 331 1.0 3.0 0.00 0.20 0.20 45 1012.6
20260506195306 55 319 1.0 3.0 0.00 0.20 0.20 44 1012.6
20260506194803 55 313 2.0 4.0 0.00 0.20 0.20 43 1012.5
20260506194259 56 345 2.0 4.0 0.00 0.20 0.20 45 1012.7
20260506193757 56 291 2.0 4.0 0.00 0.20 0.20 43 1012.6
20260506193254 56 272 4.0 7.0 0.00 0.20 0.20 42 1012.5
20260506192750 56 287 1.0 3.0 0.00 0.20 0.20 44 1012.6
20260506192247 56 295 4.0 6.0 0.00 0.20 0.20 43 1012.7
20260506191744 57 273 2.0 6.0 0.00 0.20 0.20 43 1012.5
20260506191240 57 328 3.0 4.0 0.00 0.20 0.20 44 1012.5
20260506190737 57 276 3.0 3.0 0.00 0.20 0.20 47 1012.5
20260506190234 56 319 1.0 4.0 0.00 0.20 0.20 46 1012.6
20260506185731 56 349 1.0 3.0 0.00 0.20 0.20 45 1012.7
20260506185227 56 317 1.0 4.0 0.00 0.20 0.20 43 1012.6
20260506184725 56 309 2.0 3.0 0.00 0.20 0.20 45 1012.6
20260506184222 56 336 1.0 3.0 0.00 0.20 0.20 44 1012.7
20260506183719 56 314 3.0 7.0 0.00 0.20 0.20 46 1012.8
20260506183214 56 285 1.0 3.0 0.00 0.20 0.20 45 1012.5
20260506182712 56 328 2.0 3.0 0.00 0.20 0.20 44 1012.4
20260506182209 56 327 2.0 2.0 0.00 0.20 0.20 44 1012.4
20260506181707 55 243 1.0 3.0 0.00 0.20 0.20 46 1012.6
20260506181204 55 5 2.0 3.0 0.00 0.20 0.20 44 1012.6
20260506180701 55 312 3.0 6.0 0.00 0.20 0.20 45 1012.6
20260506180157 55 345 4.0 6.0 0.00 0.20 0.20 44 1012.4
20260506175653 56 356 1.0 3.0 0.00 0.20 0.20 47 1012.5
20260506175151 56 348 2.0 3.0 0.00 0.20 0.20 48 1012.5
20260506174649 56 307 1.0 4.0 0.00 0.20 0.20 43 1012.6
20260506174145 56 337 1.0 3.0 0.00 0.20 0.20 45 1012.7
20260506173643 56 347 1.0 2.0 0.00 0.20 0.20 46 1012.8
20260506173140 56 332 3.0 3.0 0.00 0.20 0.20 48 1012.7
20260506172637 55 358 1.0 3.0 0.00 0.20 0.20 50 1012.3
20260506172133 55 295 1.0 3.0 0.00 0.20 0.20 50 1012.6
20260506171631 55 333 2.0 4.0 0.00 0.20 0.20 47 1012.9
20260506171128 56 25 1.0 3.0 0.00 0.20 0.20 47 1012.7
20260506170626 55 335 3.0 6.0 0.00 0.20 0.20 49 1012.8
20260506170122 55 278 1.0 6.0 0.00 0.20 0.20 50 1012.8
20260506165621 56 355 3.0 7.0 0.00 0.20 0.20 46 1013.0
20260506165117 55 357 1.0 8.0 0.00 0.20 0.20 48 1012.9
20260506164614 55 341 2.0 3.0 0.00 0.20 0.20 48 1012.8
20260506164112 55 327 3.0 3.0 0.00 0.20 0.20 46 1012.8
20260506163607 55 329 1.0 1.0 0.00 0.20 0.20 48 1012.9
20260506163103 55 76 2.0 3.0 0.00 0.20 0.20 50 1013.1
20260506162559 55 6 3.0 7.0 0.00 0.20 0.20 46 1012.9
20260506162051 55 325 2.0 10.0 0.00 0.20 0.20 47 1012.7
20260506161549 55 305 2.0 6.0 0.00 0.20 0.20 47 1012.6
20260506161046 55 347 2.0 3.0 0.00 0.20 0.20 50 1012.8
20260506160543 54 316 3.0 6.0 0.00 0.20 0.20 47 1012.7
20260506160040 54 305 1.0 6.0 0.00 0.20 0.20 48 1012.7
20260506155538 53 32 1.0 3.0 0.00 0.20 0.20 47 1012.8
20260506153715 53 315 2.0 4.0 0.00 0.20 0.20 51 1012.6
20260506153212 54 344 3.0 4.0 0.00 0.20 0.20 53 1012.7
20260506152709 54 325 2.0 2.0 0.00 0.20 0.20 52 1012.1
20260506152207 53 94 1.0 2.0 0.00 0.20 0.20 54 1012.2
20260506151706 53 2 2.0 4.0 0.00 0.20 0.20 55 1012.2
20260506151201 53 348 2.0 2.0 0.00 0.20 0.20 58 1012.2
20260506150658 53 290 1.0 2.0 0.00 0.20 0.20 57 1012.1
20260506150155 52 320 1.0 2.0 0.00 0.20 0.20 57 1012.4
20260506145652 53 324 1.0 2.0 0.00 0.20 0.20 57 1012.2
20260506145149 52 131 1.0 4.0 0.00 0.20 0.20 60 1012.2
20260506144647 52 348 1.0 3.0 0.00 0.20 0.20 62 1012.2
20260506144143 52 344 3.0 7.0 0.00 0.20 0.20 59 1012.1
20260506143641 52 329 4.0 4.0 0.00 0.20 0.20 61 1011.9
20260506143139 52 292 1.0 4.0 0.00 0.20 0.20 62 1012.0
20260506142637 51 242 2.0 4.0 0.00 0.20 0.20 63 1011.7
20260506142135 51 317 1.0 1.0 0.00 0.20 0.20 68 1011.8
20260506141632 51 338 3.0 4.0 0.00 0.20 0.20 68 1011.8
20260506141130 51 330 2.0 2.0 0.00 0.20 0.20 69 1011.5
20260506140627 51 286 2.0 3.0 0.00 0.20 0.20 70 1011.4
20260506140125 51 312 3.0 6.0 0.00 0.20 0.20 69 1011.3
20260506135621 50 32 2.0 3.0 0.00 0.20 0.20 73 1011.4
20260506135118 50 319 1.0 1.0 0.00 0.20 0.20 74 1011.6
20260506134614 49 327 0.0 2.0 0.00 0.20 0.20 75 1011.3
20260506134110 49 330 1.0 2.0 0.00 0.20 0.20 74 1011.7
20260506133608 49 317 1.0 6.0 0.00 0.20 0.20 75 1011.7
20260506133104 49 325 2.0 3.0 0.00 0.20 0.20 78 1011.8
20260506132602 49 322 4.0 4.0 0.00 0.20 0.20 77 1011.7
20260506132058 49 327 1.0 2.0 0.00 0.20 0.20 80 1011.6
20260506131556 48 317 0.0 3.0 0.00 0.20 0.20 80 1011.6
20260506131052 48 203 0.0 3.0 0.00 0.20 0.20 84 1011.5
20260506130549 47 314 0.0 3.0 0.00 0.20 0.20 84 1011.1
20260506130047 47 333 4.0 6.0 0.00 0.20 0.20 86 1011.2
20260506125545 47 351 2.0 3.0 0.00 0.20 0.20 86 1011.1
20260506125042 47 336 1.0 1.0 0.00 0.20 0.20 87 1011.0
20260506124540 46 331 2.0 2.0 0.00 0.20 0.20 88 1010.9
20260506124037 46 336 1.0 1.0 0.00 0.20 0.20 89 1010.9
20260506123535 46 358 1.0 2.0 0.00 0.20 0.20 90 1010.8
20260506123033 46 314 1.0 1.0 0.00 0.20 0.20 91 1011.2
20260506122529 46 294 0.0 1.0 0.00 0.20 0.20 91 1010.8
20260506122028 45 277 1.0 1.0 0.00 0.20 0.20 92 1010.7
20260506121525 45 293 1.0 3.0 0.00 0.20 0.20 92 1010.7
20260506121021 45 286 1.0 3.0 0.00 0.20 0.20 93 1011.0
20260506120519 44 315 2.0 3.0 0.00 0.20 0.20 94 1011.0
20260506120016 44 322 1.0 2.0 0.00 0.20 0.20 94 1010.6
20260506115514 44 322 1.0 1.0 0.00 0.20 0.20 94 1010.3
20260506115012 44 324 0.0 0.0 0.00 0.20 0.20 95 1010.2
20260506114509 44 354 0.0 1.0 0.00 0.20 0.20 95 1010.2
20260506114008 44 329 1.0 1.0 0.00 0.20 0.20 95 1010.2
20260506113505 44 312 0.0 0.0 0.00 0.20 0.20 95 1010.0
20260506113002 44 293 0.0 0.0 0.00 0.20 0.20 95 1010.0
20260506112459 44 292 0.0 0.0 0.07 0.20 0.20 95 1010.0
20260506111956 44 308 0.0 0.0 0.07 0.20 0.20 95 1010.0
20260506111454 44 313 0.0 0.0 0.00 0.19 0.19 95 1009.8
20260506110951 44 309 0.0 0.0 0.00 0.19 0.19 95 1009.9
20260506110449 43 314 0.0 0.0 0.00 0.19 0.19 95 1010.2
20260506105945 44 310 0.0 1.0 0.00 0.19 0.19 95 1010.2
20260506105441 44 324 0.0 1.0 0.00 0.19 0.19 95 1010.0
20260506104939 44 324 0.0 1.0 0.00 0.19 0.19 95 1009.9
20260506104437 43 296 1.0 1.0 0.00 0.19 0.19 95 1009.7
20260506103935 43 302 0.0 1.0 0.00 0.19 0.19 95 1009.9
20260506103432 43 301 0.0 0.0 0.00 0.19 0.19 95 1009.6
20260506102929 43 284 0.0 0.0 0.00 0.19 0.19 95 1009.6
20260506102427 43 351 0.0 1.0 0.00 0.19 0.19 95 1009.5
20260506101924 43 310 0.0 1.0 0.00 0.19 0.19 95 1009.5
20260506101420 43 308 0.0 1.0 0.00 0.19 0.19 95 1009.3
20260506100918 44 328 0.0 0.0 0.00 0.19 0.19 95 1008.9
20260506100416 43 321 1.0 1.0 0.00 0.19 0.19 95 1008.7
20260506095913 43 305 0.0 0.0 0.00 0.19 0.19 95 1008.6
20260506095412 43 307 0.0 0.0 0.00 0.19 0.19 95 1008.6
20260506094907 43 297 0.0 0.0 0.00 0.19 0.19 95 1008.6
20260506094406 43 297 0.0 0.0 0.00 0.19 0.19 95 1008.9
20260506093904 43 213 0.0 0.0 0.00 0.19 0.19 95 1008.7
20260506093401 44 213 0.0 0.0 0.00 0.19 0.19 95 1008.7
20260506092859 44 213 0.0 0.0 0.00 0.19 0.19 95 1008.7
20260506092357 44 213 0.0 0.0 0.00 0.19 0.19 95 1008.8
20260506091853 44 213 0.0 0.0 0.00 0.19 0.19 95 1008.9
20260506091351 43 309 0.0 0.0 0.00 0.19 0.19 95 1008.9
20260506090848 43 322 0.0 0.0 0.00 0.19 0.19 95 1009.3